UAL238 KMIA-KJFK

Flight info

Callsign UAL238
Flight time N/A
Altitude 39000
Route FOLZZ3 ALYRA PELCN Y309 FLRDA SAGGY CHIEZ Q161 KALDA Q108 SIE CAMRN5
Aircraft B789/H-SDE1E2E3FGHIJ2J3J4J5M1RWXY/LB1D1

Departure

Time 2026-05-05 00:10
Airport Miami International Airport (KMIA)

Arrival

Time N/A
Airport John F. Kennedy International Airport (KJFK)
Time Latitude Longitude Altitude Speed Heading
2026-05-04 23:50 25.79834 -80.28413 26 ft 0 kts 178°
2026-05-05 00:01 25.79836 -80.28413 26 ft 4 kts 176°
2026-05-05 00:02 25.79862 -80.28414 32 ft 4 kts 200°
2026-05-05 00:02 25.79881 -80.28398 31 ft 4 kts 249°
2026-05-05 00:02 25.79885 -80.28382 29 ft 3 kts 267°
2026-05-05 00:05 25.79885 -80.28396 31 ft 4 kts 271°
2026-05-05 00:05 25.79893 -80.28432 29 ft 7 kts 289°
2026-05-05 00:05 25.79926 -80.28484 26 ft 10 kts 317°
2026-05-05 00:06 25.79993 -80.28534 27 ft 13 kts 314°
2026-05-05 00:06 25.80023 -80.28619 29 ft 11 kts 271°
2026-05-05 00:06 25.80021 -80.28713 32 ft 14 kts 265°
2026-05-05 00:06 25.80011 -80.28833 32 ft 18 kts 265°
2026-05-05 00:07 25.80000 -80.28991 30 ft 22 kts 266°
2026-05-05 00:07 25.79994 -80.29162 31 ft 22 kts 268°
2026-05-05 00:07 25.79989 -80.29336 28 ft 24 kts 268°
2026-05-05 00:07 25.79985 -80.29532 23 ft 26 kts 268°
2026-05-05 00:08 25.79977 -80.29733 27 ft 26 kts 268°
2026-05-05 00:08 25.79972 -80.29938 21 ft 27 kts 275°
2026-05-05 00:08 25.80034 -80.30102 25 ft 18 kts 337°
2026-05-05 00:08 25.80084 -80.30087 23 ft 2 kts 65°
2026-05-05 00:09 25.80083 -80.30073 24 ft 4 kts 92°
2026-05-05 00:09 25.80081 -80.30028 23 ft 10 kts 92°
2026-05-05 00:09 25.80079 -80.29888 24 ft 25 kts 89°
2026-05-05 00:09 25.80091 -80.29616 23 ft 56 kts 87°
2026-05-05 00:10 25.80114 -80.28959 31 ft 114 kts 86°
2026-05-05 00:10 25.80167 -80.27875 28 ft 165 kts 86°
2026-05-05 00:10 25.80205 -80.26582 659 ft 164 kts 91°
2026-05-05 00:10 25.80064 -80.25296 1408 ft 176 kts 106°
2026-05-05 00:11 25.79506 -80.24042 2082 ft 193 kts 113°
2026-05-05 00:11 25.78948 -80.22599 2639 ft 220 kts 111°
2026-05-05 00:11 25.78244 -80.20959 3233 ft 251 kts 116°
2026-05-05 00:11 25.77390 -80.19209 4249 ft 260 kts 118°
2026-05-05 00:12 25.76502 -80.17406 5266 ft 273 kts 119°
2026-05-05 00:12 25.75575 -80.15538 6361 ft 279 kts 120°
2026-05-05 00:12 25.74647 -80.13617 7384 ft 287 kts 115°
2026-05-05 00:12 25.74346 -80.11410 8337 ft 297 kts 85°
2026-05-05 00:13 25.74980 -80.09234 9326 ft 302 kts 55°
2026-05-05 00:13 25.76292 -80.07349 10036 ft 317 kts 47°
2026-05-05 00:13 25.77794 -80.05503 10015 ft 322 kts 45°
2026-05-05 00:13 25.79368 -80.03612 10025 ft 350 kts 46°
2026-05-05 00:14 25.81033 -80.01499 10026 ft 369 kts 47°
2026-05-05 00:14 25.82703 -79.99329 10052 ft 378 kts 47°
2026-05-05 00:14 25.84445 -79.97109 10997 ft 379 kts 47°
2026-05-05 00:14 25.86201 -79.94896 11904 ft 386 kts 46°
2026-05-05 00:15 25.87991 -79.92626 12802 ft 394 kts 46°
2026-05-05 00:15 25.89803 -79.90314 13708 ft 401 kts 46°
2026-05-05 00:15 25.91653 -79.87956 14568 ft 406 kts 46°
2026-05-05 00:15 25.93517 -79.85584 15390 ft 411 kts 46°
2026-05-05 00:16 25.95415 -79.83168 16189 ft 417 kts 45°
2026-05-05 00:16 25.97315 -79.80746 16969 ft 423 kts 45°
2026-05-05 00:16 25.99265 -79.78258 17714 ft 429 kts 45°
2026-05-05 00:16 26.01240 -79.75736 18426 ft 435 kts 45°
2026-05-05 00:17 26.03238 -79.73186 19070 ft 440 kts 45°
2026-05-05 00:17 26.05255 -79.70609 19709 ft 445 kts 45°
2026-05-05 00:17 26.06661 -79.68812 20154 ft 449 kts 45°
2026-05-05 00:17 26.08697 -79.66209 20776 ft 453 kts 45°
2026-05-05 00:18 26.10751 -79.63530 21367 ft 460 kts 49°
2026-05-05 00:18 26.12615 -79.60596 21889 ft 466 kts 51°
2026-05-05 00:18 26.14491 -79.57634 22488 ft 471 kts 51°
2026-05-05 00:18 26.16392 -79.54651 23027 ft 475 kts 51°
2026-05-05 00:19 26.18314 -79.51631 23619 ft 480 kts 51°
2026-05-05 00:19 26.20237 -79.48593 24117 ft 483 kts 51°
2026-05-05 00:19 26.22156 -79.45561 24564 ft 486 kts 51°
2026-05-05 00:19 26.24137 -79.42437 25020 ft 490 kts 51°
2026-05-05 00:20 26.26113 -79.39318 25420 ft 495 kts 51°
2026-05-05 00:20 26.28184 -79.36265 25844 ft 493 kts 43°
2026-05-05 00:20 26.30696 -79.33705 26273 ft 488 kts 31°
2026-05-05 00:20 26.33515 -79.31618 26633 ft 488 kts 27°
2026-05-05 00:21 26.36350 -79.29600 27101 ft 490 kts 26°
2026-05-05 00:21 26.39260 -79.27544 27500 ft 493 kts 26°
2026-05-05 00:21 26.42176 -79.25468 27903 ft 496 kts 26°
2026-05-05 00:21 26.45091 -79.23381 28291 ft 499 kts 26°
2026-05-05 00:22 26.48025 -79.21284 28732 ft 501 kts 26°
2026-05-05 00:22 26.50967 -79.19189 29108 ft 504 kts 26°
2026-05-05 00:22 26.53929 -79.17075 29465 ft 507 kts 26°